Location: Chiroubles
(46.1812°N, 4.6660°E)
Time: 03:34:22
(UTC+00:00)

Cosmos 1190 Rocket - Pass Details

Date: 15 August 2020
Orbit: 757 x 780 km, 74.1° (Epoch: 27 September)

Event Time Altitude Azimuth Distance (km) Brightness Sun altitude
Rises 19:19:32 0° 197° (SSW) 3,232 7.1 -5.6°
Reaches altitude 10° 19:21:53 10° 196° (SSW) 2,313 6.4 -5.9°
Maximum altitude 19:27:09 82° 110° (ESE) 790 4.0 -6.7°
Drops below altitude 10° 19:32:29 10° 23° (NNE) 2,341 6.6 -7.5°
Sets 19:34:53 0° 23° (NNE) 3,275 7.4 -7.9°
